ANA330 ROMY-RJGG

Flight info

Callsign ANA330
Flight time 2h 2m
Altitude 37000
Route FREED Y57 YULIA Y575 ALBAT Y755 CARDS
Aircraft A320/M-SDE3FGHIRWY/LB1

Departure

Time 2026-04-22 13:07
Airport Miyako Airport (ROMY)

Arrival

Time 2026-04-22 15:09
Airport Chubu Centrair International Airport (RJGG)
Time Latitude Longitude Altitude Speed Heading
2026-04-22 12:44 24.77949 125.29619 152 ft 0 kts 131°
2026-04-22 12:56 24.77949 125.29618 152 ft 0 kts 131°
2026-04-22 12:56 24.77949 125.29619 152 ft 0 kts 131°
2026-04-22 12:57 24.77949 125.29618 152 ft 0 kts 131°
2026-04-22 12:58 24.77952 125.29615 152 ft 2 kts 127°
2026-04-22 12:59 24.77960 125.29601 152 ft 2 kts 128°
2026-04-22 12:59 24.77968 125.29591 152 ft 2 kts 129°
2026-04-22 12:59 24.77980 125.29584 151 ft 2 kts 179°
2026-04-22 12:59 24.77994 125.29588 151 ft 2 kts 224°
2026-04-22 13:00 24.78005 125.29600 151 ft 2 kts 216°
2026-04-22 13:00 24.78017 125.29609 151 ft 1 kts 219°
2026-04-22 13:00 24.78018 125.29610 151 ft 0 kts 219°
2026-04-22 13:02 24.78017 125.29610 151 ft 0 kts 219°
2026-04-22 13:02 24.78013 125.29605 151 ft 2 kts 221°
2026-04-22 13:02 24.77998 125.29587 151 ft 4 kts 241°
2026-04-22 13:03 24.78005 125.29543 150 ft 9 kts 302°
2026-04-22 13:03 24.78052 125.29472 148 ft 12 kts 306°
2026-04-22 13:03 24.78107 125.29406 149 ft 11 kts 328°
2026-04-22 13:03 24.78185 125.29426 150 ft 12 kts 36°
2026-04-22 13:04 24.78253 125.29489 152 ft 13 kts 41°
2026-04-22 13:04 24.78329 125.29555 155 ft 15 kts 38°
2026-04-22 13:04 24.78421 125.29635 158 ft 18 kts 39°
2026-04-22 13:04 24.78534 125.29733 159 ft 22 kts 38°
2026-04-22 13:05 24.78668 125.29850 158 ft 26 kts 38°
2026-04-22 13:05 24.78812 125.29971 157 ft 25 kts 37°
2026-04-22 13:05 24.78914 125.30068 160 ft 14 kts 64°
2026-04-22 13:05 24.78967 125.30121 162 ft 8 kts 317°
2026-04-22 13:06 24.78959 125.30096 161 ft 0 kts 217°
2026-04-22 13:06 24.78925 125.30067 160 ft 25 kts 217°
2026-04-22 13:06 24.78592 125.29782 159 ft 93 kts 216°
2026-04-22 13:06 24.77916 125.29200 143 ft 151 kts 218°
2026-04-22 13:07 24.77051 125.28462 566 ft 159 kts 216°
2026-04-22 13:07 24.76121 125.27831 1208 ft 158 kts 192°
2026-04-22 13:07 24.75058 125.28033 1735 ft 170 kts 154°
2026-04-22 13:07 24.74236 125.29084 2101 ft 200 kts 116°
2026-04-22 13:08 24.74229 125.30704 2455 ft 230 kts 72°
2026-04-22 13:08 24.75044 125.32344 2794 ft 255 kts 57°
2026-04-22 13:08 24.76093 125.33984 3250 ft 274 kts 55°
2026-04-22 13:08 24.77253 125.35759 3783 ft 289 kts 55°
2026-04-22 13:09 24.78423 125.37595 4572 ft 293 kts 56°
2026-04-22 13:09 24.79560 125.39418 5381 ft 294 kts 56°
2026-04-22 13:09 24.80707 125.41287 6177 ft 297 kts 56°
2026-04-22 13:09 24.81857 125.43182 6965 ft 299 kts 56°
2026-04-22 13:10 24.83004 125.45083 7719 ft 300 kts 56°
2026-04-22 13:10 24.84146 125.46982 8458 ft 301 kts 56°
2026-04-22 13:10 24.85308 125.48917 9210 ft 301 kts 55°
2026-04-22 13:10 24.86450 125.50823 9917 ft 302 kts 55°
2026-04-22 13:11 24.87618 125.52769 10477 ft 309 kts 55°
2026-04-22 13:11 24.88841 125.54804 10771 ft 325 kts 55°
2026-04-22 13:11 24.90117 125.56930 11077 ft 340 kts 55°
2026-04-22 13:11 24.91440 125.59140 11363 ft 354 kts 55°
2026-04-22 13:12 24.92802 125.61416 11822 ft 362 kts 56°
2026-04-22 13:12 24.94188 125.63735 12388 ft 365 kts 56°
2026-04-22 13:12 24.95593 125.66087 12942 ft 368 kts 56°
2026-04-22 13:12 24.97008 125.68457 13476 ft 372 kts 56°
2026-04-22 13:13 24.98439 125.70858 13974 ft 376 kts 56°
2026-04-22 13:13 24.99865 125.73249 14447 ft 380 kts 56°
2026-04-22 13:13 25.01328 125.75703 14921 ft 384 kts 56°
2026-04-22 13:13 25.02799 125.78172 15391 ft 387 kts 55°
2026-04-22 13:14 25.04283 125.80665 15822 ft 391 kts 55°
2026-04-22 13:14 25.05777 125.83174 16238 ft 395 kts 55°
2026-04-22 13:14 25.07295 125.85726 16674 ft 398 kts 55°
2026-04-22 13:14 25.08813 125.88277 17076 ft 402 kts 55°
2026-04-22 13:15 25.10344 125.90852 17488 ft 404 kts 55°
2026-04-22 13:15 25.11898 125.93466 17892 ft 407 kts 55°
2026-04-22 13:15 25.13461 125.96096 18279 ft 410 kts 54°
2026-04-22 13:15 25.15029 125.98737 18662 ft 413 kts 55°
2026-04-22 13:16 25.16588 126.01367 19033 ft 416 kts 55°
2026-04-22 13:16 25.18181 126.04054 19392 ft 419 kts 55°
2026-04-22 13:16 25.19765 126.06728 19757 ft 421 kts 55°
2026-04-22 13:16 25.21370 126.09441 20107 ft 424 kts 54°
2026-04-22 13:17 25.22999 126.12196 20470 ft 426 kts 54°
2026-04-22 13:17 25.24623 126.14941 20817 ft 429 kts 54°
2026-04-22 13:17 25.26258 126.17707 21152 ft 431 kts 54°
2026-04-22 13:17 25.27890 126.20469 21470 ft 434 kts 54°
2026-04-22 13:18 25.29538 126.23261 21808 ft 436 kts 54°
2026-04-22 13:18 25.31190 126.26060 22133 ft 438 kts 54°
2026-04-22 13:18 25.32866 126.28904 22449 ft 440 kts 54°
2026-04-22 13:18 25.34538 126.31737 22756 ft 443 kts 54°
2026-04-22 13:19 25.36222 126.34598 23073 ft 445 kts 54°
2026-04-22 13:19 25.37916 126.37479 23394 ft 447 kts 54°
2026-04-22 13:19 25.39595 126.40333 23711 ft 449 kts 54°
2026-04-22 13:19 25.41302 126.43233 24047 ft 451 kts 54°
2026-04-22 13:20 25.43010 126.46142 24363 ft 453 kts 54°
2026-04-22 13:20 25.44717 126.49050 24654 ft 455 kts 54°
2026-04-22 13:20 25.46459 126.52021 24963 ft 457 kts 54°
2026-04-22 13:20 25.48180 126.54966 25266 ft 459 kts 55°
2026-04-22 13:21 25.49860 126.57971 25576 ft 461 kts 56°
2026-04-22 13:21 25.51515 126.60998 25864 ft 463 kts 56°
2026-04-22 13:21 25.53186 126.64066 26159 ft 464 kts 56°
2026-04-22 13:21 25.54853 126.67123 26432 ft 466 kts 56°
2026-04-22 13:22 25.56534 126.70196 26670 ft 469 kts 56°
2026-04-22 13:22 25.58230 126.73294 26925 ft 471 kts 56°
2026-04-22 13:22 25.59924 126.76390 27202 ft 472 kts 56°
2026-04-22 13:22 25.61627 126.79501 27457 ft 473 kts 56°
2026-04-22 13:23 25.63320 126.82595 27697 ft 475 kts 56°
2026-04-22 13:23 25.65039 126.85740 27957 ft 476 kts 56°
2026-04-22 13:23 25.66752 126.88872 28207 ft 478 kts 56°
2026-04-22 13:23 25.68466 126.92012 28463 ft 479 kts 56°
2026-04-22 13:24 25.70192 126.95177 28725 ft 480 kts 56°
2026-04-22 13:24 25.71928 126.98355 28944 ft 482 kts 56°
2026-04-22 13:24 25.73666 127.01541 29146 ft 484 kts 56°
2026-04-22 13:24 25.75407 127.04739 29389 ft 486 kts 56°
2026-04-22 13:25 25.77166 127.07974 29633 ft 487 kts 56°
2026-04-22 13:25 25.78917 127.11197 29840 ft 489 kts 56°
2026-04-22 13:25 25.80650 127.14383 30074 ft 490 kts 56°
2026-04-22 13:25 25.82415 127.17634 30301 ft 491 kts 56°
2026-04-22 13:26 25.84167 127.20861 30547 ft 491 kts 56°
2026-04-22 13:26 25.85945 127.24140 30873 ft 490 kts 56°
2026-04-22 13:26 25.87685 127.27355 31195 ft 489 kts 56°
2026-04-22 13:26 25.89436 127.30589 31482 ft 488 kts 56°
2026-04-22 13:27 25.91176 127.33802 31764 ft 487 kts 56°
2026-04-22 13:27 25.92906 127.37005 32064 ft 486 kts 56°
2026-04-22 13:27 25.94649 127.40234 32329 ft 486 kts 56°
2026-04-22 13:27 25.96369 127.43426 32578 ft 485 kts 56°
2026-04-22 13:28 25.98111 127.46656 32872 ft 484 kts 56°
2026-04-22 13:28 25.99823 127.49829 33167 ft 483 kts 56°
2026-04-22 13:28 26.01549 127.53037 33481 ft 482 kts 55°
2026-04-22 13:28 26.03250 127.56200 33762 ft 481 kts 55°
2026-04-22 13:29 26.04973 127.59403 34031 ft 480 kts 55°
2026-04-22 13:29 26.06679 127.62577 34266 ft 480 kts 55°
2026-04-22 13:29 26.08386 127.65756 34520 ft 479 kts 56°
2026-04-22 13:29 26.10085 127.68921 34749 ft 479 kts 56°
2026-04-22 13:30 26.11810 127.72115 34920 ft 479 kts 54°
2026-04-22 13:30 26.13640 127.75199 35129 ft 477 kts 51°
2026-04-22 13:30 26.15615 127.78139 35340 ft 474 kts 47°
2026-04-22 13:30 26.17716 127.80907 35508 ft 472 kts 43°
2026-04-22 13:31 26.19990 127.83562 35649 ft 470 kts 39°
2026-04-22 13:31 26.22367 127.86024 35772 ft 468 kts 36°
2026-04-22 13:31 26.24837 127.88360 35859 ft 469 kts 34°
2026-04-22 13:32 26.29857 127.93008 36083 ft 470 kts 34°
2026-04-22 13:32 26.32352 127.95324 36193 ft 470 kts 34°
2026-04-22 13:32 26.34873 127.97669 36304 ft 471 kts 34°
2026-04-22 13:33 26.39885 128.02351 36490 ft 472 kts 34°
2026-04-22 13:33 26.44952 128.07095 36637 ft 474 kts 34°
2026-04-22 13:34 26.49966 128.11798 36818 ft 474 kts 34°
2026-04-22 13:34 26.55044 128.16566 36900 ft 476 kts 34°
2026-04-22 13:35 26.60095 128.21318 36904 ft 476 kts 34°
2026-04-22 13:35 26.65172 128.26096 36909 ft 477 kts 34°
2026-04-22 13:36 26.70220 128.30853 36908 ft 478 kts 34°
2026-04-22 13:36 26.75298 128.35646 36908 ft 478 kts 34°
2026-04-22 13:37 26.80370 128.40439 36904 ft 477 kts 34°
2026-04-22 13:37 26.85430 128.45226 36898 ft 477 kts 34°
2026-04-22 13:38 26.90509 128.50037 36896 ft 478 kts 34°
2026-04-22 13:38 26.98109 128.57243 36890 ft 478 kts 34°
2026-04-22 13:39 27.03173 128.62056 36893 ft 478 kts 34°
2026-04-22 13:39 27.08232 128.66867 36888 ft 478 kts 35°
2026-04-22 13:40 27.13302 128.71696 36891 ft 478 kts 35°
2026-04-22 13:40 27.18356 128.76517 36888 ft 478 kts 35°
2026-04-22 13:41 27.23432 128.81363 36887 ft 477 kts 34°
2026-04-22 13:41 27.28480 128.86185 36888 ft 478 kts 35°
2026-04-22 13:42 27.33540 128.91031 36887 ft 478 kts 35°
2026-04-22 13:42 27.38587 128.95865 36893 ft 479 kts 35°
2026-04-22 13:43 27.43686 129.00757 36891 ft 480 kts 35°
2026-04-22 13:43 27.48743 129.05617 36888 ft 478 kts 35°
2026-04-22 13:44 27.53612 129.10707 36892 ft 484 kts 41°
2026-04-22 13:44 27.58048 129.16437 36891 ft 486 kts 45°
2026-04-22 13:45 27.62343 129.22317 36893 ft 487 kts 46°
2026-04-22 13:45 27.66636 129.28194 36890 ft 487 kts 45°
2026-04-22 13:46 27.70960 129.34099 36890 ft 486 kts 46°
2026-04-22 13:46 27.75254 129.39966 36885 ft 486 kts 46°
2026-04-22 13:47 27.79571 129.45865 36886 ft 487 kts 46°
2026-04-22 13:47 27.83853 129.51732 36887 ft 487 kts 46°
2026-04-22 13:48 27.88182 129.57663 36883 ft 487 kts 46°
2026-04-22 13:48 27.92455 129.63531 36886 ft 487 kts 46°
2026-04-22 13:49 27.96764 129.69455 36882 ft 488 kts 46°
2026-04-22 13:49 28.01088 129.75406 36886 ft 488 kts 46°
2026-04-22 13:50 28.05390 129.81337 36885 ft 488 kts 46°
2026-04-22 13:50 28.09677 129.87256 36889 ft 488 kts 46°
2026-04-22 13:51 28.13964 129.93181 36887 ft 489 kts 46°
2026-04-22 13:51 28.18284 129.99164 36886 ft 488 kts 46°
2026-04-22 13:52 28.22582 130.05122 36888 ft 489 kts 46°
2026-04-22 13:52 28.26864 130.11072 36899 ft 487 kts 46°
2026-04-22 13:53 28.31135 130.17006 36894 ft 488 kts 46°
2026-04-22 13:53 28.35414 130.22966 36889 ft 488 kts 46°
2026-04-22 13:54 28.39689 130.28923 36895 ft 488 kts 46°
2026-04-22 13:54 28.43970 130.34900 36887 ft 487 kts 46°
2026-04-22 13:55 28.48238 130.40866 36889 ft 487 kts 46°
2026-04-22 13:55 28.52486 130.46817 36893 ft 486 kts 46°
2026-04-22 13:56 28.56737 130.52776 36888 ft 486 kts 46°
2026-04-22 13:56 28.60990 130.58746 36891 ft 486 kts 46°
2026-04-22 13:57 28.65250 130.64739 36892 ft 485 kts 46°
2026-04-22 13:57 28.69502 130.70718 36890 ft 486 kts 46°
2026-04-22 13:58 28.73744 130.76704 36888 ft 486 kts 46°
2026-04-22 13:58 28.77981 130.82689 36889 ft 486 kts 46°
2026-04-22 13:59 28.82216 130.88678 36890 ft 486 kts 46°
2026-04-22 13:59 28.86461 130.94685 36889 ft 488 kts 46°
2026-04-22 14:00 28.90689 131.00684 36890 ft 488 kts 46°
2026-04-22 14:00 28.94947 131.06728 36882 ft 488 kts 47°
2026-04-22 14:01 28.99174 131.12744 36875 ft 489 kts 46°
2026-04-22 14:01 29.03425 131.18796 36879 ft 489 kts 46°
2026-04-22 14:02 29.07682 131.24870 36885 ft 489 kts 47°
2026-04-22 14:02 29.11910 131.30910 36879 ft 489 kts 47°
2026-04-22 14:03 29.16167 131.36998 36884 ft 489 kts 47°
2026-04-22 14:03 29.20410 131.43080 36889 ft 490 kts 47°
2026-04-22 14:04 29.24639 131.49150 36893 ft 491 kts 47°
2026-04-22 14:04 29.28878 131.55240 36895 ft 491 kts 47°
2026-04-22 14:05 29.33126 131.61356 36896 ft 491 kts 47°
2026-04-22 14:06 29.39515 131.70564 36898 ft 492 kts 47°
2026-04-22 14:06 29.43748 131.76683 36898 ft 492 kts 47°
2026-04-22 14:07 29.47992 131.82820 36898 ft 492 kts 47°
2026-04-22 14:07 29.52229 131.88959 36898 ft 493 kts 47°
2026-04-22 14:08 29.56478 131.95120 36895 ft 494 kts 47°
2026-04-22 14:08 29.60739 132.01315 36899 ft 493 kts 47°
2026-04-22 14:09 29.64989 132.07504 36897 ft 494 kts 47°
2026-04-22 14:09 29.69296 132.13620 36894 ft 492 kts 45°
2026-04-22 14:10 29.73634 132.19670 36890 ft 492 kts 46°
2026-04-22 14:10 29.77981 132.25754 36889 ft 493 kts 46°
2026-04-22 14:11 29.82333 132.31867 36890 ft 495 kts 46°
2026-04-22 14:11 29.86673 132.37978 36888 ft 495 kts 46°
2026-04-22 14:12 29.91032 132.44132 36887 ft 494 kts 46°
2026-04-22 14:12 29.95365 132.50255 36888 ft 493 kts 46°
2026-04-22 14:13 29.99691 132.56377 36887 ft 493 kts 45°
2026-04-22 14:13 30.04019 132.62509 36890 ft 494 kts 45°
2026-04-22 14:14 30.08325 132.68622 36886 ft 493 kts 46°
2026-04-22 14:14 30.12667 132.74794 36887 ft 495 kts 46°
2026-04-22 14:15 30.16979 132.80939 36888 ft 495 kts 46°
2026-04-22 14:15 30.21322 132.87129 36898 ft 496 kts 46°
2026-04-22 14:16 30.25645 132.93308 36900 ft 495 kts 46°
2026-04-22 14:16 30.29974 132.99498 36904 ft 497 kts 46°
2026-04-22 14:17 30.34314 133.05713 36910 ft 496 kts 46°
2026-04-22 14:17 30.38621 133.11891 36912 ft 497 kts 46°
2026-04-22 14:18 30.42963 133.18127 36911 ft 499 kts 46°
2026-04-22 14:18 30.47315 133.24396 36915 ft 498 kts 46°
2026-04-22 14:19 30.51639 133.30620 36916 ft 499 kts 46°
2026-04-22 14:19 30.55986 133.36900 36913 ft 499 kts 46°
2026-04-22 14:20 30.62476 133.46292 36912 ft 499 kts 46°
2026-04-22 14:20 30.66812 133.52576 36916 ft 499 kts 46°
2026-04-22 14:21 30.73308 133.62009 36913 ft 500 kts 46°
2026-04-22 14:22 30.79812 133.71478 36910 ft 500 kts 47°
2026-04-22 14:23 30.86312 133.80965 36906 ft 502 kts 47°
2026-04-22 14:23 30.90656 133.87314 36892 ft 498 kts 47°
2026-04-22 14:23 30.92784 133.90437 36470 ft 492 kts 46°
2026-04-22 14:24 30.94889 133.93526 36056 ft 484 kts 46°
2026-04-22 14:24 30.96959 133.96562 35602 ft 479 kts 46°
2026-04-22 14:24 30.99043 133.99611 35289 ft 480 kts 46°
2026-04-22 14:24 31.01107 134.02634 35007 ft 481 kts 47°
2026-04-22 14:25 31.03197 134.05696 34710 ft 483 kts 47°
2026-04-22 14:25 31.05270 134.08748 34479 ft 482 kts 47°
2026-04-22 14:25 31.07340 134.11792 34183 ft 484 kts 47°
2026-04-22 14:25 31.09447 134.14893 33893 ft 485 kts 47°
2026-04-22 14:26 31.11533 134.17967 33663 ft 484 kts 47°
2026-04-22 14:26 31.13630 134.21062 33430 ft 485 kts 47°
2026-04-22 14:26 31.15718 134.24138 33207 ft 487 kts 47°
2026-04-22 14:26 31.17808 134.27228 32943 ft 488 kts 47°
2026-04-22 14:27 31.19904 134.30327 32713 ft 488 kts 47°
2026-04-22 14:27 31.21994 134.33417 32523 ft 488 kts 48°
2026-04-22 14:27 31.24111 134.36557 32342 ft 489 kts 47°
2026-04-22 14:27 31.26205 134.39662 32189 ft 489 kts 47°
2026-04-22 14:28 31.28304 134.42773 32050 ft 489 kts 48°
2026-04-22 14:28 31.30409 134.45898 31804 ft 490 kts 48°
2026-04-22 14:28 31.32509 134.49014 31582 ft 492 kts 47°
2026-04-22 14:28 31.34630 134.52174 31411 ft 491 kts 48°
2026-04-22 14:29 31.36721 134.55286 31247 ft 491 kts 47°
2026-04-22 14:29 31.38838 134.58438 31089 ft 492 kts 48°
2026-04-22 14:29 31.40961 134.61600 30952 ft 492 kts 48°
2026-04-22 14:30 31.45156 134.67853 30928 ft 493 kts 49°
2026-04-22 14:30 31.49377 134.74167 30936 ft 494 kts 49°
2026-04-22 14:31 31.53609 134.80507 30942 ft 494 kts 49°
2026-04-22 14:31 31.57833 134.86832 30948 ft 495 kts 49°
2026-04-22 14:32 31.62057 134.93182 30955 ft 495 kts 49°
2026-04-22 14:32 31.66284 134.99541 30960 ft 494 kts 49°
2026-04-22 14:33 31.71000 135.05281 30961 ft 485 kts 31°
2026-04-22 14:33 31.73825 135.07347 30961 ft 476 kts 20°
2026-04-22 14:33 31.76862 135.08807 30962 ft 468 kts 10°
2026-04-22 14:34 31.83166 135.10352 30967 ft 462 kts
2026-04-22 14:34 31.89489 135.11627 30968 ft 463 kts
2026-04-22 14:35 31.95869 135.12984 30967 ft 464 kts
2026-04-22 14:35 32.02209 135.14371 30963 ft 465 kts
2026-04-22 14:36 32.08553 135.15770 30955 ft 464 kts
2026-04-22 14:36 32.14918 135.17174 30952 ft 464 kts
2026-04-22 14:37 32.21239 135.18570 30952 ft 462 kts
2026-04-22 14:37 32.27582 135.19968 30952 ft 461 kts
2026-04-22 14:37 32.30693 135.20657 30673 ft 453 kts
2026-04-22 14:38 32.33753 135.21336 30324 ft 444 kts
2026-04-22 14:38 32.36762 135.22005 30058 ft 433 kts
2026-04-22 14:38 32.39674 135.22650 29794 ft 424 kts
2026-04-22 14:38 32.42562 135.23290 29514 ft 416 kts
2026-04-22 14:39 32.45402 135.23910 29256 ft 415 kts
2026-04-22 14:39 32.48206 135.24528 28989 ft 412 kts
2026-04-22 14:39 32.51029 135.25153 28960 ft 412 kts
2026-04-22 14:40 32.56691 135.26404 28789 ft 412 kts
2026-04-22 14:40 32.59509 135.27029 28563 ft 411 kts
2026-04-22 14:40 32.62293 135.27647 28319 ft 411 kts
2026-04-22 14:40 32.65118 135.28276 28077 ft 409 kts
2026-04-22 14:41 32.67905 135.28894 27872 ft 407 kts
2026-04-22 14:41 32.70685 135.29509 27640 ft 405 kts
2026-04-22 14:41 32.73442 135.30124 27442 ft 403 kts
2026-04-22 14:41 32.76219 135.30737 27214 ft 403 kts
2026-04-22 14:42 32.78952 135.31343 27003 ft 401 kts
2026-04-22 14:42 32.81684 135.31949 26759 ft 400 kts
2026-04-22 14:42 32.84423 135.32558 26541 ft 398 kts
2026-04-22 14:42 32.87162 135.33165 26308 ft 397 kts
2026-04-22 14:43 32.89866 135.33768 26100 ft 395 kts
2026-04-22 14:43 32.92563 135.34369 25875 ft 395 kts
2026-04-22 14:43 32.95249 135.34969 25660 ft 393 kts
2026-04-22 14:43 32.97929 135.35565 25428 ft 391 kts
2026-04-22 14:44 33.00600 135.36160 25194 ft 389 kts
2026-04-22 14:44 33.03249 135.36754 24963 ft 388 kts
2026-04-22 14:44 33.05894 135.37346 24733 ft 387 kts
2026-04-22 14:44 33.08522 135.37933 24517 ft 384 kts
2026-04-22 14:45 33.11175 135.38527 24324 ft 383 kts
2026-04-22 14:45 33.13760 135.39107 24107 ft 382 kts
2026-04-22 14:45 33.16387 135.39691 23871 ft 381 kts
2026-04-22 14:45 33.18993 135.40274 23657 ft 379 kts
2026-04-22 14:46 33.21574 135.40852 23446 ft 377 kts
2026-04-22 14:46 33.24153 135.41434 23212 ft 376 kts
2026-04-22 14:46 33.26719 135.42007 22993 ft 374 kts
2026-04-22 14:46 33.29256 135.42578 22807 ft 372 kts
2026-04-22 14:47 33.31791 135.43146 22587 ft 370 kts
2026-04-22 14:47 33.34313 135.43803 22408 ft 372 kts
2026-04-22 14:47 33.36757 135.44899 22189 ft 378 kts 19°
2026-04-22 14:47 33.39042 135.46466 21970 ft 384 kts 29°
2026-04-22 14:48 33.41178 135.48347 21806 ft 383 kts 32°
2026-04-22 14:48 33.43280 135.50297 21576 ft 384 kts 32°
2026-04-22 14:48 33.45403 135.52274 21369 ft 382 kts 32°
2026-04-22 14:48 33.47480 135.54195 21154 ft 381 kts 32°
2026-04-22 14:49 33.49575 135.56123 20962 ft 379 kts 32°
2026-04-22 14:49 33.51677 135.58049 20778 ft 377 kts 32°
2026-04-22 14:49 33.53754 135.59944 20617 ft 375 kts 32°
2026-04-22 14:49 33.55831 135.61841 20420 ft 374 kts 32°
2026-04-22 14:50 33.57881 135.63707 20206 ft 374 kts 32°
2026-04-22 14:50 33.59952 135.65599 20026 ft 373 kts 33°
2026-04-22 14:50 33.62000 135.67471 19842 ft 369 kts 33°
2026-04-22 14:50 33.64028 135.69330 19665 ft 368 kts 32°
2026-04-22 14:51 33.66063 135.71190 19463 ft 366 kts 33°
2026-04-22 14:51 33.68105 135.73048 19252 ft 366 kts 32°
2026-04-22 14:51 33.70118 135.74867 19058 ft 364 kts 32°
2026-04-22 14:51 33.72136 135.76688 18848 ft 362 kts 32°
2026-04-22 14:52 33.74152 135.78502 18633 ft 362 kts 32°
2026-04-22 14:52 33.76176 135.80328 18447 ft 360 kts 32°
2026-04-22 14:52 33.78164 135.82123 18240 ft 359 kts 32°
2026-04-22 14:52 33.80166 135.83931 18035 ft 362 kts 33°
2026-04-22 14:53 33.82238 135.85797 17980 ft 385 kts 32°
2026-04-22 14:53 33.84428 135.87776 17977 ft 405 kts 33°
2026-04-22 14:53 33.86742 135.89868 17975 ft 423 kts 33°
2026-04-22 14:53 33.89124 135.92027 17973 ft 439 kts 33°
2026-04-22 14:54 33.91573 135.94252 17974 ft 445 kts 33°
2026-04-22 14:54 33.94041 135.96500 17968 ft 446 kts 33°
2026-04-22 14:54 33.96525 135.98766 17968 ft 446 kts 34°
2026-04-22 14:54 33.98987 136.01007 17970 ft 446 kts 33°
2026-04-22 14:55 34.01466 136.03267 17945 ft 449 kts 33°
2026-04-22 14:55 34.04012 136.05579 17705 ft 464 kts 34°
2026-04-22 14:55 34.06585 136.07927 17413 ft 466 kts 33°
2026-04-22 14:55 34.09149 136.10265 17038 ft 463 kts 33°
2026-04-22 14:56 34.11727 136.12620 16573 ft 458 kts 33°
2026-04-22 14:56 34.14251 136.14931 16060 ft 455 kts 33°
2026-04-22 14:56 34.16742 136.17207 15562 ft 449 kts 34°
2026-04-22 14:56 34.19228 136.19481 15063 ft 444 kts 33°
2026-04-22 14:57 34.21674 136.21712 14458 ft 440 kts 32°
2026-04-22 14:57 34.24094 136.23917 13856 ft 435 kts 33°
2026-04-22 14:57 34.26474 136.26085 13367 ft 430 kts 33°
2026-04-22 14:57 34.28858 136.28252 12779 ft 426 kts 33°
2026-04-22 14:58 34.31213 136.30397 12196 ft 422 kts 33°
2026-04-22 14:58 34.33550 136.32529 11695 ft 417 kts 33°
2026-04-22 14:58 34.35835 136.34615 11158 ft 411 kts 33°
2026-04-22 14:58 34.38097 136.36687 10696 ft 400 kts 33°
2026-04-22 14:59 34.40249 136.38666 10422 ft 386 kts 34°
2026-04-22 14:59 34.42091 136.40976 10192 ft 377 kts 52°
2026-04-22 14:59 34.43296 136.43716 10023 ft 365 kts 63°
2026-04-22 14:59 34.44291 136.46500 9737 ft 356 kts 65°
2026-04-22 15:00 34.45245 136.49229 9370 ft 348 kts 64°
2026-04-22 15:00 34.46172 136.51845 8962 ft 332 kts 65°
2026-04-22 15:00 34.47060 136.54318 8878 ft 304 kts 64°
2026-04-22 15:00 34.47893 136.56619 8518 ft 300 kts 64°
2026-04-22 15:01 34.48755 136.58971 8009 ft 302 kts 65°
2026-04-22 15:01 34.49638 136.61374 7556 ft 302 kts 65°
2026-04-22 15:01 34.50476 136.63664 7144 ft 295 kts 66°
2026-04-22 15:01 34.51292 136.65903 6685 ft 288 kts 67°
2026-04-22 15:02 34.52103 136.68131 6430 ft 287 kts 68°
2026-04-22 15:02 34.52901 136.70331 6107 ft 285 kts 68°
2026-04-22 15:02 34.53699 136.72531 5721 ft 284 kts 67°
2026-04-22 15:02 34.54487 136.74705 5404 ft 281 kts 67°
2026-04-22 15:03 34.55264 136.76848 5159 ft 279 kts 67°
2026-04-22 15:03 34.56044 136.78999 4889 ft 277 kts 67°
2026-04-22 15:03 34.56808 136.81105 4577 ft 274 kts 67°
2026-04-22 15:03 34.57577 136.83225 4322 ft 273 kts 67°
2026-04-22 15:04 34.58412 136.85304 3992 ft 271 kts 55°
2026-04-22 15:04 34.59780 136.86757 3928 ft 257 kts 26°
2026-04-22 15:04 34.61466 136.87207 3807 ft 242 kts 354°
2026-04-22 15:04 34.63001 136.86662 3745 ft 228 kts 335°
2026-04-22 15:05 34.64463 136.85902 3676 ft 223 kts 339°
2026-04-22 15:05 34.65909 136.85364 3576 ft 213 kts 346°
2026-04-22 15:05 34.67342 136.84978 3398 ft 206 kts 348°
2026-04-22 15:05 34.68725 136.84651 3136 ft 201 kts 349°
2026-04-22 15:06 34.70092 136.84332 2842 ft 198 kts 349°
2026-04-22 15:06 34.71423 136.84015 2560 ft 195 kts 349°
2026-04-22 15:06 34.72738 136.83697 2288 ft 191 kts 350°
2026-04-22 15:06 34.74031 136.83385 2028 ft 186 kts 349°
2026-04-22 15:07 34.75286 136.83081 1782 ft 182 kts 350°
2026-04-22 15:07 34.76514 136.82783 1548 ft 176 kts 350°
2026-04-22 15:07 34.77676 136.82503 1321 ft 163 kts 350°
2026-04-22 15:07 34.78730 136.82248 1128 ft 148 kts 351°
2026-04-22 15:08 34.79704 136.82011 885 ft 137 kts 350°
2026-04-22 15:08 34.80640 136.81790 697 ft 135 kts 350°
2026-04-22 15:08 34.81559 136.81567 582 ft 135 kts 348°
2026-04-22 15:08 34.82482 136.81337 468 ft 135 kts 349°
2026-04-22 15:09 34.83408 136.81126 237 ft 135 kts 349°
2026-04-22 15:09 34.84324 136.80905 41 ft 134 kts 349°
2026-04-22 15:09 34.85142 136.80710 9 ft 96 kts 348°
2026-04-22 15:09 34.85633 136.80592 9 ft 46 kts 349°
2026-04-22 15:10 34.85907 136.80624 9 ft 36 kts 19°
2026-04-22 15:10 34.86018 136.80681 9 ft 6 kts 50°
2026-04-22 15:10 34.86006 136.80733 9 ft 7 kts 139°
2026-04-22 15:10 34.85950 136.80753 8 ft 9 kts 168°
2026-04-22 15:11 34.85885 136.80774 9 ft 10 kts 163°
2026-04-22 15:11 34.85811 136.80794 9 ft 11 kts 168°
2026-04-22 15:11 34.85727 136.80812 9 ft 12 kts 169°
2026-04-22 15:11 34.85637 136.80833 9 ft 13 kts 169°
2026-04-22 15:12 34.85571 136.80875 9 ft 11 kts 111°
2026-04-22 15:12 34.85579 136.80975 9 ft 12 kts 79°
2026-04-22 15:12 34.85597 136.81085 9 ft 13 kts 79°
2026-04-22 15:12 34.85616 136.81201 9 ft 13 kts 79°
2026-04-22 15:13 34.85612 136.81279 9 ft 8 kts 111°
2026-04-22 15:13 34.85613 136.81354 9 ft 6 kts 79°
2026-04-22 15:13 34.85619 136.81395 9 ft 2 kts 78°
2026-04-22 15:13 34.85621 136.81406 9 ft 0 kts 79°